When you browse on this site, cookies collect data to enhance your experience and personalize the content and advertising you see.
Visit our Privacy Policy to learn more. By continuing to use the site, you agree to this use of cookies and data.
  • In Portugal
  • List of Countries
  • For 7 days
  • Water Temperature
  • Satellite Maps
  • Weather Map
  • Weather Widgets
  • user-avatar
    Login

    Hourly Weather Gabrovo

    Today, 16 January, Wednesday

    Time Temperature Precipitation Wind Pressure Humidity
    00:00 -8°C° 0 mm 4 mps 698 mmHg 69%
    01:00 -7°C° 0 mm 3 mps 698 mmHg 69%
    02:00 -7°C° 0 mm 3 mps 698 mmHg 69%
    03:00 -7°C° 0 mm 3 mps 698 mmHg 70%
    04:00 -6°C° 0 mm 3 mps 698 mmHg 70%
    05:00 -6°C° 0 mm 3 mps 698 mmHg 71%
    06:00 -6°C° 0 mm 3 mps 698 mmHg 70%
    07:00 -6°C° 0 mm 3 mps 698 mmHg 69%
    08:00 -5°C° 0 mm 3 mps 698 mmHg 66%
    09:00 -4°C° 0 mm 3 mps 698 mmHg 62%
    10:00 -2°C° 0 mm 4 mps 698 mmHg 57%
    11:00 0°C° 0 mm 4 mps 699 mmHg 53%
    12:00 +1°C° 0 mm 4 mps 699 mmHg 53%
    13:00 +2°C° 0 mm 5 mps 699 mmHg 53%
    14:00 +3°C° 0 mm 5 mps 699 mmHg 54%
    15:00 +3°C° 0 mm 4 mps 699 mmHg 58%
    16:00 +1°C° 0 mm 4 mps 699 mmHg 61%
    17:00 +1°C° 0 mm 3 mps 699 mmHg 65%
    18:00 0°C° 0 mm 3 mps 699 mmHg 67%
    19:00 -1°C° 0 mm 3 mps 699 mmHg 69%
    20:00 -1°C° 0 mm 3 mps 699 mmHg 71%
    21:00 -1°C° 0 mm 3 mps 700 mmHg 71%
    22:00 -1°C° 0 mm 2 mps 700 mmHg 71%
    23:00 -2°C° 0 mm 2 mps 701 mmHg 72%

    Tomorrow, 17 January, Thursday

    Time Temperature Precipitation Wind Pressure Humidity
    00:00 -2°C° 0 mm 2 mps 701 mmHg 71%
    01:00 -2°C° 0 mm 2 mps 701 mmHg 71%
    02:00 0°C° 0 mm 1 mps 701 mmHg 71%
    03:00 0°C° 0 mm 1 mps 701 mmHg 69%
    04:00 0°C° 0 mm 1 mps 701 mmHg 68%
    05:00 0°C° 0 mm 1 mps 701 mmHg 67%
    06:00 0°C° 0 mm 1 mps 701 mmHg 66%
    07:00 0°C° 0 mm 1 mps 701 mmHg 65%
    08:00 -1°C° 0 mm 0 mps 701 mmHg 65%
    09:00 +2°C° 0 mm 1 mps 702 mmHg 63%
    10:00 +3°C° 0 mm 1 mps 702 mmHg 61%
    11:00 +5°C° 0 mm 1 mps 702 mmHg 59%
    12:00 +5°C° 0 mm 1 mps 702 mmHg 58%
    13:00 +6°C° 0 mm 1 mps 702 mmHg 57%
    14:00 +7°C° 0 mm 1 mps 702 mmHg 56%
    15:00 +5°C° 0 mm 1 mps 701 mmHg 60%
    16:00 +4°C° 0 mm 1 mps 701 mmHg 63%
    17:00 +3°C° 0 mm 1 mps 701 mmHg 66%
    18:00 +2°C° 0 mm 1 mps 701 mmHg 65%
    19:00 +2°C° 0 mm 1 mps 701 mmHg 65%
    20:00 +1°C° 0 mm 1 mps 701 mmHg 64%
    21:00 +1°C° 0 mm 1 mps 701 mmHg 65%
    22:00 +1°C° 0 mm 1 mps 701 mmHg 67%
    23:00 +1°C° 0 mm 1 mps 701 mmHg 68%

    Day after tomorrow, 18 January, Friday

    Time Temperature Precipitation Wind Pressure Humidity
    00:00 +1°C° 0 mm 1 mps 701 mmHg 69%
    01:00 +1°C° 0 mm 1 mps 701 mmHg 71%
    02:00 +1°C° 0 mm 1 mps 701 mmHg 72%
    03:00 +1°C° 0 mm 1 mps 700 mmHg 73%
    04:00 +1°C° 0 mm 1 mps 700 mmHg 73%
    05:00 0°C° 0 mm 1 mps 700 mmHg 73%
    06:00 0°C° 0 mm 1 mps 700 mmHg 73%
    07:00 0°C° 0 mm 1 mps 700 mmHg 72%
    08:00 0°C° 0 mm 1 mps 700 mmHg 71%
    09:00 +2°C° 0 mm 1 mps 700 mmHg 67%
    10:00 +4°C° 0 mm 1 mps 701 mmHg 63%
    11:00 +5°C° 0 mm 1 mps 701 mmHg 59%
    12:00 +6°C° 0 mm 1 mps 701 mmHg 57%
    13:00 +7°C° 0 mm 1 mps 701 mmHg 55%
    14:00 +8°C° 0 mm 1 mps 700 mmHg 53%
    15:00 +6°C° 0 mm 1 mps 701 mmHg 57%
    16:00 +5°C° 0 mm 1 mps 701 mmHg 62%
    17:00 +4°C° 0 mm 1 mps 701 mmHg 66%
    18:00 +4°C° 0 mm 1 mps 701 mmHg 68%
    19:00 +3°C° 0 mm 1 mps 702 mmHg 70%
    20:00 +2°C° 0 mm 1 mps 702 mmHg 73%
    21:00 +2°C° 0 mm 1 mps 702 mmHg 73%
    22:00 +2°C° 0 mm 1 mps 703 mmHg 73%
    23:00 +2°C° 0 mm 1 mps 703 mmHg 73%

    19 January, Saturday

    Time Temperature Precipitation Wind Pressure Humidity
    00:00 +2°C° 0 mm 1 mps 703 mmHg 75%
    01:00 +1°C° 0 mm 1 mps 703 mmHg 76%
    02:00 +1°C° 0 mm 1 mps 703 mmHg 77%
    03:00 +1°C° 0 mm 1 mps 703 mmHg 79%
    04:00 +1°C° 0 mm 1 mps 703 mmHg 80%
    05:00 0°C° 0 mm 1 mps 703 mmHg 82%
    06:00 0°C° 0 mm 1 mps 704 mmHg 83%
    07:00 0°C° 0 mm 1 mps 704 mmHg 84%
    08:00 0°C° 0 mm 1 mps 704 mmHg 85%
    09:00 +1°C° 0 mm 1 mps 704 mmHg 83%
    10:00 +1°C° 0 mm 2 mps 704 mmHg 81%
    11:00 +2°C° 0 mm 2 mps 705 mmHg 78%
    12:00 +2°C° 0 mm 2 mps 704 mmHg 77%
    13:00 +3°C° 0 mm 2 mps 704 mmHg 75%
    14:00 +3°C° 0 mm 2 mps 703 mmHg 73%
    15:00 +3°C° 0 mm 2 mps 703 mmHg 77%
    16:00 +2°C° 0 mm 2 mps 703 mmHg 80%
    17:00 +2°C° 0 mm 1 mps 703 mmHg 84%
    18:00 +2°C° 0 mm 1 mps 703 mmHg 86%
    19:00 +1°C° 0 mm 1 mps 703 mmHg 88%
    20:00 0°C° 0 mm 1 mps 703 mmHg 90%
    21:00 0°C° 0 mm 1 mps 703 mmHg 91%
    22:00 0°C° 0 mm 1 mps 703 mmHg 91%
    23:00 0°C° 0 mm 1 mps 702 mmHg 92%

    20 January, Sunday

    Time Temperature Precipitation Wind Pressure Humidity
    00:00 0°C° 0 mm 1 mps 702 mmHg 93%
    01:00 0°C° 0 mm 1 mps 702 mmHg 94%
    02:00 0°C° 0 mm 1 mps 701 mmHg 95%
    03:00 +1°C° 0 mm 1 mps 701 mmHg 95%
    04:00 +1°C° 0 mm 1 mps 701 mmHg 96%
    05:00 +1°C° 0 mm 1 mps 700 mmHg 96%
    06:00 0°C° 0 mm 1 mps 700 mmHg 95%
    07:00 0°C° 0 mm 1 mps 700 mmHg 95%
    08:00 0°C° 0 mm 1 mps 700 mmHg 95%
    09:00 +2°C° 0 mm 1 mps 700 mmHg 91%
    10:00 +3°C° 0 mm 1 mps 701 mmHg 87%
    11:00 +4°C° 0 mm 1 mps 701 mmHg 84%
    12:00 +5°C° 0 mm 1 mps 700 mmHg 81%
    13:00 +6°C° 0 mm 1 mps 700 mmHg 79%
    14:00 +6°C° 0 mm 1 mps 700 mmHg 76%
    15:00 +5°C° 0 mm 1 mps 699 mmHg 79%
    16:00 +5°C° 0 mm 1 mps 699 mmHg 82%
    17:00 +4°C° 0 mm 1 mps 699 mmHg 85%
    18:00 +4°C° 0 mm 1 mps 699 mmHg 85%
    19:00 +3°C° 0 mm 1 mps 699 mmHg 85%
    20:00 +3°C° 0 mm 1 mps 699 mmHg 85%
    21:00 +3°C° 0 mm 1 mps 699 mmHg 85%
    22:00 +3°C° 0 mm 1 mps 699 mmHg 85%
    23:00 +3°C° 0 mm 1 mps 699 mmHg 85%

    21 January, Monday

    Time Temperature Precipitation Wind Pressure Humidity
    00:00 +2°C° 0 mm 1 mps 699 mmHg 85%
    01:00 +2°C° 0 mm 1 mps 699 mmHg 86%
    02:00 +2°C° 0 mm 1 mps 699 mmHg 86%
    03:00 +2°C° 0 mm 1 mps 699 mmHg 86%
    04:00 +2°C° 0 mm 1 mps 699 mmHg 85%
    05:00 +2°C° 0 mm 1 mps 699 mmHg 85%
    06:00 +2°C° 0 mm 1 mps 699 mmHg 85%
    07:00 +2°C° 0 mm 1 mps 699 mmHg 85%
    08:00 +2°C° 0 mm 1 mps 699 mmHg 85%
    09:00 +3°C° 0 mm 1 mps 700 mmHg 81%
    10:00 +5°C° 0 mm 1 mps 700 mmHg 76%
    11:00 +6°C° 0 mm 1 mps 701 mmHg 72%
    12:00 +6°C° 0 mm 0 mps 701 mmHg 70%
    13:00 +6°C° 0 mm 0 mps 701 mmHg 68%
    14:00 +7°C° 0 mm 0 mps 701 mmHg 66%
    15:00 +7°C° 0.1 mm 1 mps 701 mmHg 70%
    16:00 +6°C° 0.1 mm 1 mps 701 mmHg 74%
    17:00 +5°C° 0.1 mm 1 mps 701 mmHg 78%
    18:00 +5°C° 0.1 mm 1 mps 701 mmHg 80%
    19:00 +4°C° 0.1 mm 1 mps 702 mmHg 83%
    20:00 +4°C° 0.1 mm 1 mps 702 mmHg 85%
    21:00 +4°C° 0.1 mm 1 mps 702 mmHg 86%
    22:00 +3°C° 0.1 mm 1 mps 703 mmHg 87%
    23:00 +3°C° 0.1 mm 1 mps 703 mmHg 87%
    Show more